Regional Weather Roundup
Issued by NWS

Home | Current Version | Previous Version | Text Only | Print | Product List | Glossary On
Versions: 1 2 3 4 5 6 7 8 9 10 11 12 13 14 15 16 17 18 19 20 21 22 23 24 25 26 27 28 29 30 31 32 33 34 35 36 37 38 39 40 41 42 43 44 45 46 47 48 49 50
000
ASUS43 KDMX 251106
RWRIA

WEATHER ROUNDUP FOR IOWA
NATIONAL WEATHER SERVICE DES MOINES IA
600 AM CDT WED APR 25 2018

NOTE: "FAIR" INDICATES FEW OR NO CLOUDS BELOW 12,000 FEET WITH NO
SIGNIFICANT WEATHER AND/OR OBSTRUCTIONS TO VISIBILITY.

* - THESE STATIONS ARE NOT NWS STATIONS...THUS NOT UNDER NWS
QUALITY CONTROL.  THEY ALSO DO NOT REPORT WEATHER SUCH
AS PRECIPITATION OR FOG.

IAZ001>003-012>014-020>022-031>034-043>046-251200-
   NORTHWEST IOWA

CITY           SKY/WX    TMP DP  RH WIND       PRES   REMARKS
CARROLL *      CLOUDY    41  37  87 N8        30.21R
CHEROKEE *     CLOUDY    37  32  83 N7        30.24R WCI  32
DENISON *      CLOUDY    43  37  81 NE12      30.22S
LE MARS *      CLOUDY    36  32  87 N6        30.26R WCI  31
ORANGE CITY *  CLOUDY    36  32  87 N8        30.25S WCI  29
SHELDON *      CLOUDY    30  30 100 NW5       30.24S WCI  25
SIOUX CITY     CLOUDY    40  33  76 N10       30.25S WCI  33
SPENCER        CLEAR     34  29  82 N9        30.23S WCI  27
STORM LAKE *   CLOUDY    36  32  87 N9        30.22R WCI  29
$$

IAZ055>058-069>071-079>083-090>094-251200-
   SOUTHWEST IOWA

CITY           SKY/WX    TMP DP  RH WIND       PRES   REMARKS
ATLANTIC *     CLOUDY    45  43  93 N8G14     30.18F
AUDUBON *      CLOUDY    43  39  87 N8        30.20S
CRESTON *      CLOUDY    46  43  87 N10       30.16S
HARLAN  *      CLOUDY    45  41  87 N12       30.23S
LAMONI         CLOUDY    50  40  68 N14       30.13R
RED OAK *      CLOUDY    46  45  93 N9        30.18F
SHENANDOAH *   CLOUDY    48  43  81 N8        30.19S
$$

IAZ047>049-059>061-072>074-084-251200-
   CENTRAL IOWA

CITY           SKY/WX    TMP DP  RH WIND       PRES   REMARKS
AMES           MOCLDY    44  37  76 N9        30.18R
ANKENY *       CLOUDY    46  39  76 N12       30.17S
BOONE *        CLOUDY    41  39  93 N9        30.17S
CHARITON *     CLOUDY    48  39  71 N10       30.14R
DES MOINES     CLOUDY    49  37  63 N8        30.16S
GRINNELL*      CLOUDY    44  35  70 N13       30.14S
KNOXVILLE *    CLOUDY    48  36  61 N9        30.13R
MARSHALLTOWN   PTCLDY    40  36  86 N8        30.15S WCI  34
NEWTON *       CLOUDY    45  36  70 N14       30.14S
PELLA *        CLOUDY    46  36  68 N7        30.14F
PERRY *        FAIR      44  35  70 N9        30.18S
$$

IAZ004>006-015-016-023>025-035-036-251200-
   NORTH CENTRAL IOWA

CITY           SKY/WX    TMP DP  RH WIND       PRES   REMARKS
ALGONA *       CLEAR     36  32  87 N8        30.20S WCI  29
CLARION *      CLOUDY    37  32  81 N6        30.19R WCI  33
ESTHERVILLE    CLEAR     33  29  85 N9        30.22F WCI  25
FORT DODGE *   PTCLDY    39  33  79 N7        30.21R WCI  34
MASON CITY     CLEAR     34  29  82 N12       30.20S WCI  25
FOREST CITY *  FAIR      36  32  87 N10       30.19S WCI  28
WEBSTER CITY * CLOUDY    37  36  93 N7        30.18R WCI  32
IOWA FALLS *     N/A     39  34  80 N5        30.18R
$$

IAZ007>011-017>019-026>030-037>042-050>054-066-251200-
   NORTHEAST IOWA

CITY           SKY/WX    TMP DP  RH WIND       PRES   REMARKS
CEDAR RAPIDS   FAIR      46  36  68 N14       30.11R
CHARLES CITY * FAIR      36  36 100 N8        30.18S WCI  29
CLINTON *      FAIR      43  33  68 NE9       30.12R
DECORAH *      FAIR      39  32  75 N7        30.16S WCI  34
DUBUQUE        FAIR      43  30  60 NE10      30.12S
MONTICELLO *   FAIR      45  36  70 N10       30.12S
OELWEIN *      FAIR      37  36  93 N7        30.15F WCI  32
WATERLOO       FAIR      37  34  89 N9        30.15F WCI  30
$$

IAZ064-065-067-068-078-251200-
   EAST CENTRAL IOWA

CITY           SKY/WX    TMP DP  RH WIND       PRES   REMARKS
DAVENPORT      MOCLDY    47  31  53 NE13      30.12R
IOWA CITY      MOCLDY    49  35  58 N13       30.13R
MT. PLEASANT * PTCLDY    46  34  61 N12       30.09S
MUSCATINE *    CLOUDY    48  37  66 NE8       30.10R
QUAD CITIES    CLOUDY    50  33  52 NE14      30.10R
$$

IAZ062-063-075>077-085>089-095>099-251200-
   SOUTHEAST IOWA

CITY           SKY/WX    TMP DP  RH WIND       PRES   REMARKS
BURLINGTON     MOCLDY    51  39  63 NE17      30.07R
FAIRFIELD *    CLOUDY    46  36  66 N12       30.10R
FORT MADISON * CLOUDY    48  37  66 N9        30.08R
KEOKUK *       CLOUDY    50  36  57 N12       30.07R
OSKALOOSA *    FAIR      45  36  70 N12       30.12S
CENTERVILLE *  CLOUDY    48  37  66 N13       30.14R
OTTUMWA        CLOUDY    45  36  70 N10       30.11F
WASHINGTON *   PTCLDY    45  37  76 N8        30.11S
$$

ABBREVIATIONS USED IN REMARKS
   TC - TEMPERATURES IN CELSIUS
  WCI - WIND CHILL INDEX
   HX - HEAT INDEX
  VSB - VISIBILITY
$$




USA.gov is the U.S. government's official web portal to all federal, state and local government web resources and services.